GSAT0221 (GALILEO 25)

Last updated on Thu Apr 09 2026 00:02:35 GMT+0000 (Coordinated Universal Time)

1 43564U 18060A 26098.26146691 -.00000082 00000+0 00000+0 0 9996 2 43564 57.1908 343.6706 0004278 317.8675 42.1457 1.70475747 47973
UTC large
Height (km)
Speed (km/s)
/
Latitude / Longitude
Inclination (degrees)
Orbital Period (minutes)
Azimuth
Elevation
Range (km)
Doppler Factor

Next 0 passes for location: London (51.5072 / 0.1276)

Sorry there are no passes over London.
GSAT0221 (GALILEO 25)